Temp_Advection
nan nan nan nan nan nan nan nan nan nan nan nan nan nan nan nan nan nan nan nan nan nan nan nan nan nan nan nan nan nan nan nan nan nan nan nan nan nan nan nan nan nan nan nan nan
nan 0 -0 -0 -0 -0 0 0 0 0 -0 -0 -0 -0 -0 -0 -0 -1 -0 -0 -0 -0 -0 0 0 -0 -0 -0 -0 -0 0 -0 -0 -0 -0 1 0 -1 -1 -0 -0 -0 -0 -1 nan
nan -0 -0 -0 -0 -0 -0 -0 -0 -0 -0 -0 -0 -0 -0 -0 -0 0 0 -0 0 -0 0 0 0 -0 -0 -0 -0 -0 -0 0 -0 0 -1 -1 1 0 -1 -0 -1 -2 -0 -0 nan
nan 0 -0 -0 -0 -0 -0 -0 -0 -0 -0 -0 -0 -0 -0 -0 -0 0 0 0 0 -0 -0 0 -0 -0 -0 -0 -0 -1 -0 -0 -0 0 -0 -1 1 -0 0 -0 -0 -1 -2 -1 nan
nan 0 0 0 0 0 0 0 0 -0 -0 -0 -0 0 -0 -0 -1 0 -0 -0 0 -0 -0 -0 -0 -0 -0 0 -1 -1 -0 -0 0 -0 -0 -2 -1 -0 0 -0 -0 -1 -0 -0 nan
nan 0 0 0 0 0 0 0 0 0 0 -0 -0 -0 0 -0 0 0 -0 -0 -0 -0 -0 -1 -0 -0 -0 0 0 -1 -0 -0 -0 -0 -1 -1 0 -0 -0 0 -0 -1 -1 -1 nan
nan -0 0 0 0 0 0 0 0 0 0 0 0 -0 -1 -1 0 0 -0 -0 -0 -0 -0 -0 0 -0 -0 -0 -1 -1 -0 -0 0 0 -0 -0 1 0 -0 -0 -0 -1 -1 -1 nan
nan -0 0 0 0 0 0 0 0 0 0 0 0 -0 -1 0 0 -0 -0 -0 0 0 -0 -0 0 0 -0 -0 -0 -0 0 -0 -0 -0 -0 0 0 1 0 0 -0 -0 -0 -0 nan
nan -0 -0 -0 0 0 0 0 0 0 0 0 0 -0 -1 -0 -0 -0 -0 -0 -0 0 0 0 0 -0 0 -0 -0 -0 -0 -0 0 -0 -0 -0 0 1 0 0 0 -0 -0 0 nan
nan -0 -0 -0 -0 0 0 0 0 0 0 0 0 -0 -0 -0 0 0 -0 -0 -0 -0 0 -0 0 0 -0 0 -0 -0 -0 -0 0 -0 -0 -0 -0 -1 2 1 0 -0 -0 -0 nan
nan -0 -0 -0 -0 -0 0 0 0 0 -0 -1 0 -0 -1 0 -0 -0 -0 -0 0 0 0 0 -0 -0 -0 -0 -0 -1 -0 -0 -0 -0 0 0 -0 -0 -1 0 2 2 0 -1 nan
nan -0 0 0 -0 -0 0 0 0 0 -0 -1 0 -0 -0 -0 -0 -0 -0 -0 -0 0 -0 -0 -0 -1 -0 0 -0 -1 -1 -0 0 0 0 -0 0 0 -0 -0 -0 0 1 -0 nan
nan 0 0 0 0 0 -0 0 0 0 -0 -1 -0 -0 -0 -0 0 -0 -0 -0 -0 0 0 -0 -1 -1 -0 -0 0 -0 -1 -0 -0 -0 -0 0 0 -0 -0 -0 -0 -0 0 1 nan
nan 0 0 0 0 0 0 0 0 1 -0 -1 -0 -0 -0 0 -0 -0 -0 0 0 0 -0 -0 -1 -0 0 -0 -0 0 -0 -1 -0 -0 -0 -0 0 0 -0 -0 -0 -1 -0 1 nan
nan 0 0 -0 0 0 0 -0 0 0 0 -0 -0 0 0 -0 -0 -0 -0 0 0 -0 -0 -0 -0 -0 -0 -0 -1 -0 0 -0 -0 -0 -0 0 0 0 -0 -1 -1 -1 -0 0 nan
nan 0 0 0 0 0 -0 -0 -0 -0 0 -0 -0 0 -0 0 -0 0 0 0 0 0 0 -1 -1 -0 0 0 -0 -1 0 -1 -0 -0 -0 -0 -0 0 -0 -1 -1 -0 0 -0 nan
nan 0 0 0 0 -0 -0 -0 -1 1 -0 -0 -0 0 0 -0 0 0 0 0 0 -0 -0 -1 -0 -0 -2 -1 -0 -0 -0 0 0 -0 -0 -0 0 -0 -0 -0 -0 0 -0 -0 nan
nan 0 0 -0 -0 -0 0 -1 0 -0 -0 -0 -0 -0 -0 0 -0 -0 -0 0 0 -0 0 -0 -1 0 -0 -1 -1 -0 -0 -0 -0 -0 -0 -0 -0 -0 -0 -0 1 1 -1 0 nan
nan 0 0 -0 -0 0 -0 -0 -0 0 0 -0 -0 -0 -0 -0 -0 -0 0 0 0 -0 -0 -0 -0 -0 -0 -1 -1 -0 -0 -0 0 -0 -0 -0 -0 -0 0 0 0 -0 -0 -0 nan
nan -0 0 -0 -0 1 -0 -0 -1 0 0 -0 -0 -0 -0 -0 -0 -0 -0 0 0 -0 0 -0 -0 -0 -0 -0 0 -1 -0 -0 0 0 0 -0 -0 0 -0 -0 -0 0 -0 0 nan
nan -1 -0 0 0 0 -0 -1 -0 0 -0 0 -0 0 0 0 -0 0 0 -0 0 -0 -0 -0 0 -1 -0 0 0 -0 0 -0 -0 -0 0 -0 -0 -0 0 -0 -0 0 -0 0 nan
nan -0 0 0 0 0 -0 -1 0 -0 -0 -0 -0 0 -0 -0 -0 0 0 -0 0 -0 -0 0 -0 -0 -0 -0 -0 0 -0 -0 0 -0 -0 -0 -0 -0 -0 -0 0 0 1 -0 nan
nan -1 -0 1 0 -0 -1 -0 -0 -0 -0 0 0 -0 -0 -0 -0 -0 -0 -1 0 -0 -0 0 -0 -0 -1 -0 -0 -0 -0 0 -0 0 -0 0 0 -0 -0 -1 -1 -1 -0 1 nan
nan -0 -1 -1 0 0 -0 -0 0 0 -0 -0 -0 -0 -0 -0 -0 -0 -0 -1 -0 -0 -0 -1 -0 -0 -0 -0 -0 0 0 0 -0 0 -0 -0 0 -0 -1 -1 -0 -0 -1 -0 nan
nan -0 -0 -0 -1 0 -0 -0 -0 0 -0 -1 -0 -0 -0 -0 0 0 -0 -0 -1 -0 -0 -0 -0 0 0 -0 -0 -0 0 -0 -0 0 0 0 -1 -0 -0 0 0 -0 -1 -0 nan
nan -0 -0 -0 -0 -1 -0 0 -0 0 -0 0 -0 -0 -0 0 0 0 0 -0 -0 -1 -0 -0 0 0 -0 -0 -0 -0 -1 -1 -0 -0 -0 -1 -1 -0 -0 -0 -0 0 0 -0 nan
nan nan nan nan nan nan nan nan nan nan nan nan nan nan nan nan nan nan nan nan nan nan nan nan nan nan nan nan nan nan nan nan nan nan nan nan nan nan nan nan nan nan nan nan nan
Wind_Speed
14 15 15 14 12 10 9 7 7 6 6 6 6 7 8 9 9 11 12 7 10 3 5 10 15 12 7 3 5 8 3 4 2 4 3 17 21 10 21 35 21 9 29 33 33
14 15 15 14 13 11 9 8 7 7 6 6 6 6 7 9 10 12 6 7 11 7 9 14 18 12 4 7 6 4 1 3 4 6 6 16 17 21 18 23 16 25 28 34 34
14 15 15 15 14 12 10 9 8 7 7 6 5 5 6 7 7 3 3 10 14 10 11 14 9 7 8 9 7 4 2 3 9 4 12 10 20 22 23 14 28 37 38 39 38
14 15 15 14 13 13 12 11 10 9 7 6 5 5 6 4 2 2 4 1 11 11 12 15 11 4 7 7 10 7 12 10 7 6 4 14 19 21 27 18 35 36 36 36 37
13 15 15 15 13 11 11 11 10 9 8 6 5 5 5 4 7 1 6 1 11 13 15 16 12 7 4 3 9 8 17 18 12 13 13 22 12 9 15 34 36 35 37 40 38
13 14 15 16 14 11 10 11 10 9 9 6 5 4 3 3 4 2 5 1 8 14 17 20 10 2 9 4 3 11 16 16 11 14 9 7 10 16 27 32 34 37 38 37 33
11 12 14 15 15 12 11 12 10 9 8 7 5 5 7 9 2 2 5 7 7 14 20 21 13 10 12 3 9 15 7 5 4 1 6 7 11 14 33 32 26 34 34 31 33
11 12 14 15 16 13 11 11 10 8 6 7 4 7 6 3 4 9 5 5 8 12 20 13 8 15 10 10 5 5 5 4 4 4 5 3 7 22 35 30 23 31 24 24 33
11 12 14 15 15 13 10 10 10 7 5 4 5 7 6 4 8 11 8 6 7 9 17 10 8 8 5 5 4 5 4 4 2 10 5 6 4 14 30 29 25 27 24 31 35
11 13 13 14 15 12 9 12 10 8 6 6 7 8 5 3 2 8 16 13 7 9 8 9 5 1 3 4 3 5 5 2 4 3 4 6 2 4 25 29 28 27 24 30 31
12 13 14 14 13 10 5 9 10 3 11 9 16 14 13 9 8 5 9 14 17 6 4 4 3 5 4 3 1 9 7 5 4 1 4 2 11 6 10 2 20 30 24 31 35
14 15 15 13 10 4 4 6 7 8 10 17 15 17 13 7 1 5 8 6 9 6 4 4 6 9 5 8 14 8 12 3 3 4 2 3 11 4 8 6 6 2 26 36 34
16 17 15 9 2 2 4 4 9 14 4 12 10 11 9 5 4 7 7 9 2 2 4 7 7 10 10 13 12 10 7 5 3 5 5 3 3 4 2 8 10 6 6 32 38
19 17 9 2 3 3 8 11 12 7 4 6 2 3 8 4 4 16 15 10 2 10 7 6 17 10 12 11 14 6 9 13 7 2 3 4 3 5 6 10 9 15 5 24 38
19 13 6 2 1 4 10 10 9 6 4 3 3 4 3 5 3 8 17 11 6 6 1 10 5 6 7 16 11 6 13 12 6 4 2 5 4 5 4 11 14 16 15 15 34
18 10 4 3 2 4 7 11 10 5 2 5 1 2 0 4 6 16 11 10 5 5 6 10 13 5 7 17 9 18 13 11 5 3 2 6 2 7 5 12 18 15 23 20 27
15 8 2 1 3 4 10 10 5 4 4 4 5 2 2 3 3 6 5 3 3 4 5 8 5 4 21 17 8 15 6 3 0 1 5 5 4 8 7 9 17 20 25 28 25
12 7 5 5 3 4 13 5 5 4 4 7 3 5 2 2 4 3 4 1 4 3 2 2 7 12 4 12 14 14 6 6 4 2 2 6 5 6 11 10 26 37 33 32 29
10 12 9 3 5 3 6 4 3 2 5 7 5 7 6 6 2 3 2 1 4 5 5 1 5 3 9 8 15 6 5 7 6 2 3 4 5 9 8 2 14 23 25 27 38
14 16 2 7 6 5 3 4 3 2 5 6 4 4 5 6 7 4 2 2 4 3 5 3 2 2 7 10 11 12 7 3 2 5 4 4 4 7 4 10 10 10 16 26 30
15 8 4 9 7 3 2 5 1 2 2 2 3 1 1 3 1 1 5 3 4 6 5 1 3 8 3 1 9 1 1 3 4 4 5 3 6 7 9 8 15 22 27 31 34
10 4 4 10 3 2 2 5 5 9 7 7 8 3 2 6 5 2 2 1 10 5 3 3 4 2 6 7 4 3 2 4 5 5 2 4 5 6 7 4 12 12 30 33 37
13 7 4 11 2 2 7 3 3 3 4 5 5 4 6 5 3 4 5 9 4 3 2 5 3 4 9 7 9 6 6 4 2 2 3 5 5 5 10 9 11 14 9 25 31
6 3 6 8 10 2 3 2 1 3 4 2 3 8 6 5 4 2 7 5 6 2 3 4 3 6 5 7 2 4 9 5 4 3 3 5 2 4 12 13 23 24 7 5 22
2 3 3 4 7 1 1 2 7 2 7 10 6 5 2 6 7 6 4 7 8 7 5 4 2 2 9 9 3 1 5 13 5 5 5 3 5 4 6 9 17 30 34 24 9
3 4 8 12 11 10 2 2 6 3 3 3 5 4 6 5 2 2 4 3 2 10 2 4 1 2 1 7 7 1 14 13 9 6 6 6 9 6 8 9 22 22 15 32 31
6 4 4 7 8 5 3 5 3 4 3 7 5 3 5 3 6 10 12 12 7 4 4 4 2 3 4 5 4 7 6 12 12 11 3 9 5 8 10 17 21 18 8 8 22
Wind_Direction
16 15 16 16 12 3 358 348 340 332 320 307 297 288 288 280 275 277 263 232 193 147 168 165 173 175 190 220 154 122 118 233 174 21 63 124 119 129 134 134 144 146 145 145 150
19 17 16 17 15 11 2 356 346 336 326 313 305 296 295 290 288 277 287 220 185 177 191 174 178 185 214 197 140 116 193 274 288 319 2 134 123 137 139 142 134 122 145 148 152
19 19 18 15 14 12 10 2 355 344 332 322 312 307 301 304 309 33 18 213 203 174 183 190 195 255 217 197 157 99 146 237 270 268 322 271 158 150 142 135 152 141 147 151 154
18 18 17 15 14 16 18 15 7 1 350 335 323 314 305 296 201 86 29 140 181 181 196 202 221 242 246 189 159 110 140 191 280 262 272 250 164 156 157 170 160 155 156 157 167
16 15 16 12 10 10 11 7 1 1 355 345 333 320 309 270 245 95 347 150 186 189 195 200 219 231 225 227 115 114 180 203 252 268 275 260 261 156 148 155 154 156 160 167 169
12 10 7 7 5 0 356 350 345 347 349 341 329 314 296 290 98 89 17 284 191 191 196 202 208 282 260 188 212 147 175 185 197 251 245 277 142 115 149 161 157 158 163 170 172
359 357 358 359 357 353 345 345 341 338 352 351 329 303 269 223 203 226 316 330 225 192 197 204 226 281 326 101 67 132 143 145 232 17 301 309 121 133 156 159 159 160 168 168 181
343 344 346 350 350 346 339 340 341 337 335 353 343 324 261 101 279 234 242 304 187 179 194 208 244 280 268 119 50 50 91 165 222 290 279 262 152 150 156 156 154 165 157 165 174
331 335 338 341 338 339 330 332 331 323 322 320 305 327 277 217 222 222 224 237 186 167 192 222 290 253 243 124 89 23 336 314 35 23 350 35 111 172 158 160 164 173 166 167 167
330 330 331 333 331 333 328 335 327 293 293 314 284 312 333 295 250 230 204 229 189 189 237 255 241 143 43 82 194 156 195 196 150 35 17 32 9 322 167 166 169 179 185 167 170
336 330 327 328 326 330 335 355 354 353 299 276 291 263 302 77 114 167 187 220 229 211 171 242 85 222 228 183 161 124 129 105 15 85 143 224 201 340 14 158 180 183 186 159 171
338 332 327 325 322 329 335 351 35 335 310 310 293 273 288 292 203 228 203 201 175 193 187 14 222 219 163 136 110 72 86 7 78 151 143 54 220 296 320 318 346 209 178 170 161
342 334 330 331 353 160 275 345 343 325 313 297 255 250 253 233 246 222 189 209 155 214 201 180 230 190 153 141 124 124 130 206 174 116 68 104 292 270 294 279 294 278 171 180 173
343 343 352 65 97 359 14 17 358 331 49 283 247 269 208 222 283 223 205 203 213 206 219 223 252 207 187 176 137 162 158 145 160 152 119 230 236 225 260 264 241 250 197 183 177
348 354 4 149 68 349 4 351 344 318 31 305 243 187 155 191 271 207 199 193 242 265 109 254 264 219 180 176 141 180 160 145 151 69 127 277 91 276 185 223 235 237 217 173 179
348 355 17 101 80 13 339 335 335 48 358 314 248 228 68 237 252 182 190 197 245 253 248 243 253 194 212 145 125 123 117 70 37 28 298 205 188 274 174 211 223 210 216 186 175
346 356 55 152 136 342 335 341 41 92 333 276 231 266 247 277 62 152 193 135 175 14 8 330 287 37 106 81 60 118 97 81 325 250 236 144 173 261 221 199 213 223 212 195 184
342 353 323 205 231 336 342 42 50 253 251 271 340 26 357 108 273 180 119 185 269 130 307 249 329 146 202 154 164 181 157 135 196 183 246 137 214 235 214 213 232 224 202 201 194
333 327 317 187 178 283 338 46 236 333 306 342 33 41 344 351 60 16 187 104 284 164 182 282 277 342 179 142 141 228 222 168 122 313 125 203 284 294 233 223 145 187 180 198 207
343 333 337 131 191 235 64 254 262 45 351 36 92 45 355 329 17 37 12 30 339 85 226 315 279 255 299 126 223 156 164 88 17 159 225 240 267 246 140 132 145 147 186 214 205
346 340 187 194 197 199 178 244 235 34 9 7 97 284 39 274 357 325 10 308 34 339 37 72 93 300 1 84 176 276 15 75 127 159 167 166 256 221 190 187 160 179 192 199 197
347 348 160 212 157 226 233 206 60 33 50 34 55 93 345 12 353 63 10 274 353 14 8 308 129 307 260 289 292 148 151 141 125 271 181 155 276 8 67 222 181 173 180 187 198
334 284 246 241 229 251 271 249 124 44 35 36 23 40 29 31 41 15 332 309 353 69 69 329 22 5 347 351 13 43 356 3 154 84 221 130 266 26 60 37 11 353 221 185 197
338 346 338 310 250 258 265 338 153 102 97 68 10 38 51 43 8 343 354 323 335 90 84 75 23 146 185 237 213 332 333 345 84 59 305 222 240 47 57 50 35 19 328 330 217
284 261 345 293 316 118 351 35 51 83 59 33 41 67 60 26 0 7 338 341 357 28 43 84 102 114 301 269 263 181 8 12 34 246 163 284 76 6 89 86 65 54 38 51 41
330 354 312 300 352 356 3 44 105 45 86 353 98 45 59 76 302 349 2 37 308 336 13 2 184 108 258 305 314 332 52 56 18 17 32 27 68 347 338 63 51 45 42 43 35
347 312 305 313 339 23 267 159 130 109 35 50 125 80 38 328 350 327 322 77 50 41 20 47 58 42 289 302 72 48 66 83 70 33 22 47 315 335 20 40 43 48 17 34 9
Height
1523 1521 1520 1518 1516 1514 1513 1512 1511 1510 1509 1508 1508 1508 1508 1508 1508 1507 1506 1509 1510 1512 1514 1515 1517 1520 1522 1523 1524 1527 1533 1535 1525 1524 1524 1521 1521 1531 1530 1532 1538 1540 1543 1548 1553
1524 1522 1519 1518 1516 1514 1512 1511 1510 1509 1508 1507 1507 1507 1506 1505 1505 1504 1505 1506 1509 1510 1513 1515 1517 1520 1521 1522 1523 1526 1534 1534 1528 1529 1527 1518 1522 1530 1534 1537 1541 1543 1549 1551 1552
1524 1522 1520 1518 1516 1514 1512 1510 1509 1508 1507 1506 1506 1505 1505 1504 1504 1501 1501 1503 1507 1510 1513 1516 1518 1521 1521 1520 1522 1527 1533 1531 1522 1529 1531 1522 1519 1527 1532 1537 1538 1541 1547 1551 1554
1525 1523 1521 1518 1516 1515 1513 1511 1509 1508 1507 1506 1505 1505 1504 1504 1505 1501 1502 1503 1505 1509 1510 1514 1517 1520 1517 1516 1518 1528 1532 1527 1523 1527 1531 1526 1521 1528 1524 1532 1537 1541 1545 1551 1555
1526 1524 1522 1519 1517 1515 1514 1512 1510 1508 1507 1505 1505 1504 1504 1504 1501 1501 1501 1502 1504 1507 1510 1513 1516 1516 1514 1513 1517 1524 1528 1527 1523 1526 1531 1530 1524 1522 1529 1533 1539 1543 1546 1550 1553
1526 1524 1522 1519 1517 1515 1514 1512 1510 1508 1506 1505 1504 1503 1504 1505 1500 1500 1501 1501 1503 1505 1508 1511 1511 1515 1513 1512 1514 1516 1521 1525 1528 1528 1530 1522 1520 1520 1531 1535 1540 1544 1546 1549 1553
1526 1524 1522 1520 1517 1515 1513 1511 1510 1508 1507 1505 1504 1503 1502 1499 1499 1500 1501 1502 1502 1504 1507 1508 1513 1516 1513 1512 1515 1518 1523 1529 1532 1522 1525 1522 1522 1524 1530 1535 1540 1543 1546 1549 1552
1526 1523 1521 1519 1517 1515 1513 1511 1509 1508 1506 1505 1503 1502 1498 1498 1499 1500 1501 1502 1502 1504 1507 1510 1513 1514 1514 1514 1515 1524 1523 1535 1523 1530 1525 1522 1538 1527 1529 1533 1538 1543 1545 1548 1552
1525 1522 1520 1518 1516 1514 1512 1510 1509 1507 1506 1505 1504 1503 1497 1496 1496 1498 1499 1501 1503 1504 1506 1509 1513 1511 1511 1515 1525 1532 1536 1534 1523 1527 1526 1522 1533 1530 1529 1533 1538 1542 1545 1547 1552
1524 1521 1519 1517 1514 1513 1511 1510 1507 1506 1505 1504 1503 1505 1496 1494 1494 1494 1499 1502 1503 1505 1507 1509 1510 1510 1511 1521 1536 1537 1540 1536 1536 1534 1532 1532 1537 1533 1531 1533 1535 1540 1544 1547 1550
1522 1520 1518 1516 1513 1512 1511 1510 1510 1507 1503 1501 1500 1498 1496 1495 1494 1497 1498 1502 1504 1506 1509 1506 1514 1520 1514 1515 1516 1521 1524 1530 1531 1532 1537 1541 1538 1538 1537 1537 1537 1538 1542 1545 1549
1521 1518 1516 1514 1512 1511 1511 1510 1508 1511 1502 1496 1496 1495 1494 1495 1496 1496 1498 1501 1502 1509 1506 1511 1518 1507 1510 1511 1516 1522 1537 1543 1539 1534 1536 1541 1540 1541 1541 1540 1541 1540 1541 1544 1548
1519 1516 1513 1512 1511 1511 1510 1509 1510 1508 1506 1495 1493 1493 1493 1495 1495 1495 1497 1498 1500 1506 1507 1515 1504 1503 1509 1516 1517 1523 1534 1542 1540 1540 1541 1541 1544 1542 1540 1538 1538 1539 1540 1541 1544
1517 1514 1511 1511 1514 1512 1510 1509 1508 1506 1516 1502 1493 1492 1492 1494 1495 1493 1495 1498 1500 1506 1505 1508 1496 1501 1506 1515 1515 1530 1520 1526 1539 1538 1548 1542 1551 1540 1537 1534 1536 1536 1536 1540 1542
1516 1513 1511 1512 1512 1511 1510 1507 1506 1507 1536 1495 1492 1491 1492 1494 1493 1490 1493 1497 1500 1502 1504 1506 1494 1496 1502 1504 1507 1522 1520 1525 1536 1540 1546 1544 1543 1536 1534 1533 1530 1530 1532 1536 1539
1516 1513 1512 1513 1512 1512 1509 1506 1505 1520 1528 1499 1490 1490 1492 1491 1490 1491 1492 1494 1496 1497 1496 1495 1488 1487 1487 1493 1499 1514 1524 1530 1539 1547 1557 1537 1541 1531 1532 1521 1519 1523 1528 1532 1536
1517 1515 1514 1513 1512 1511 1509 1507 1521 1531 1501 1500 1494 1490 1492 1493 1489 1490 1491 1495 1505 1511 1512 1497 1486 1485 1486 1510 1517 1516 1532 1557 1564 1560 1555 1533 1546 1523 1517 1514 1515 1517 1523 1528 1533
1517 1516 1515 1513 1512 1511 1509 1510 1526 1509 1505 1491 1491 1490 1496 1492 1490 1491 1496 1502 1496 1502 1512 1516 1514 1494 1490 1496 1511 1516 1519 1545 1557 1556 1543 1532 1541 1515 1494 1499 1502 1504 1514 1522 1529
1517 1515 1513 1512 1512 1511 1512 1527 1519 1506 1499 1497 1495 1503 1499 1494 1496 1493 1498 1503 1497 1496 1511 1511 1504 1479 1484 1486 1496 1516 1519 1506 1532 1526 1539 1535 1518 1497 1489 1493 1491 1499 1507 1517 1522
1515 1512 1510 1510 1510 1512 1515 1520 1507 1497 1496 1496 1508 1504 1514 1507 1504 1499 1500 1495 1496 1492 1490 1495 1509 1485 1480 1484 1487 1492 1493 1527 1528 1545 1544 1535 1521 1513 1497 1490 1493 1496 1506 1512 1519
1515 1512 1510 1510 1511 1514 1522 1515 1500 1498 1496 1498 1501 1505 1504 1507 1502 1507 1506 1495 1493 1492 1491 1494 1501 1499 1485 1487 1495 1494 1499 1503 1509 1518 1532 1542 1524 1481 1481 1486 1485 1491 1498 1505 1513
1516 1515 1510 1512 1513 1511 1514 1503 1500 1500 1499 1499 1498 1501 1502 1502 1506 1505 1505 1498 1492 1492 1498 1495 1505 1513 1498 1482 1478 1481 1491 1501 1524 1519 1514 1521 1512 1478 1482 1487 1488 1491 1489 1497 1502
1517 1513 1509 1509 1518 1516 1504 1500 1499 1500 1500 1502 1503 1502 1502 1509 1510 1507 1503 1495 1492 1494 1497 1496 1510 1528 1509 1495 1485 1498 1497 1498 1502 1509 1512 1525 1512 1486 1488 1494 1500 1499 1498 1495 1498
1518 1518 1509 1507 1506 1506 1504 1502 1502 1500 1501 1501 1502 1501 1505 1512 1510 1510 1506 1497 1494 1494 1495 1495 1510 1519 1534 1517 1505 1505 1500 1497 1504 1521 1517 1510 1496 1496 1497 1499 1500 1497 1498 1498 1497
1519 1517 1515 1516 1507 1503 1501 1500 1504 1504 1503 1503 1507 1509 1511 1518 1516 1515 1508 1504 1498 1496 1497 1501 1516 1509 1506 1501 1497 1498 1502 1500 1504 1501 1511 1497 1505 1505 1503 1499 1504 1502 1503 1499 1502
1519 1519 1515 1511 1508 1504 1502 1502 1505 1505 1505 1507 1511 1508 1510 1516 1514 1515 1511 1509 1508 1502 1500 1502 1513 1512 1512 1503 1497 1496 1502 1504 1501 1501 1501 1505 1511 1509 1505 1506 1500 1500 1506 1506 1508
1520 1518 1516 1511 1508 1508 1505 1501 1503 1502 1505 1505 1506 1507 1511 1509 1508 1507 1506 1509 1510 1508 1510 1512 1515 1520 1524 1506 1502 1521 1510 1511 1514 1512 1511 1518 1519 1515 1511 1507 1505 1502 1509 1509 1505